Weather in Shegini

Ukraine / Lviv District     49°48′03″N   22°58′29″E
temp.,
°C
wind,
m/s
gust,
m/s
humid.,
%
clouds,
%
prec.,
mm/h
press.,
hPa
HPBL,
m
7 march, sun
sun723:00−1wsw511720 0.0 1030327
02:00−1wsw613670 0.0 1029376
05:00−2sw714670 0.0 1026397
08:00−1wsw614660 0.0 1025504
11:00+2wsw711583 0.0 10231224
14:00+4wsw812568 0.0 10201385
17:00+3wsw5116221 0.0 1018599
20:000wsw6126914 0.0 1018332
8 march, mon
mon823:00−1wsw4107330 0.0 1017266
02:000w5127858 0.0 1016699
05:00−1w5118699 0.0 1016635
08:00−1wnw699399 0.4 1016658
11:00+1nnw577199 0.6 10181051
14:00+2nw575764 0.6 10181444
17:00+1nw476684 0.0 10191089
20:00−2nw367955 0.1 1021180
9 march, tue
tue923:00−2wnw22790 0.0 102245
02:00−3w22780 0.0 102268
05:00−3w227929 0.0 1022102
08:00−2w227564 0.0 1022218
11:000nw2264100 0.1 1022744
14:00+1n1253100 0.2 10221163
17:00+1nne1157100 0.1 1020938
20:00−1e016790 0.1 102221
10 march, wed
wed1023:00−2se127466 0.0 102231
02:00−2sse117384 0.0 102227
05:00−2e117299 0.0 102122
08:00−1se007161 0.0 102272
11:00+1ene11570 0.0 1023816
14:00+2nnw11514 0.0 10221247
17:00+2ene12610 0.0 1022103
20:00−1sse22660 0.0 102322
11 march, thu
thu1123:00−2s33720 0.0 102462
02:00−2s23710 0.0 102353
05:00−1ssw310690 0.0 1022313
08:00+1ssw414727 0.0 1020602
11:00+5sw91561100 0.0 1018925
14:00+5sw101767100 0.0 1015915
17:00+5sw101976100 0.1 1013808
20:00+6sw112179100 0.3 1012710